Weather History for Robinson, IL

Change the Weather History Date:

Wednesday, March 12, 2014

  Actual Average (KLWV) Record (KLWV)
Temperature  
Mean Temperature 46 °F 44 °F  
Max Temperature 61 °F 54 °F 75 °F (2012)
Min Temperature 30 °F 33 °F 9 °F (1998)
Degree Days  
Heating Degree Days 20 21  
Month to date heating degree days 278  
Since 1 July heating degree days 3953  
Cooling Degree Days 0 0  
Month to date cooling degree days 0  
Year to date cooling degree days 0  
Moisture  
Dew Point 36 °F    
Average Humidity 87    
Maximum Humidity 97    
Minimum Humidity 69    
Precipitation  
Precipitation 0.24 in 0.09 in 2.19 in (1975)
Month to date precipitation 0.98  
Year to date precipitation 5.37  
Sea Level Pressure  
Sea Level Pressure 29.79 in    
Wind  
Wind Speed 14 mph (NNW)    
Max Wind Speed 28 mph    
Max Gust Speed 38 mph    
Visibility 8 miles    
Events Rain , Snow , Thunderstorm    
T = Trace of Precipitation, MM = Missing Value Source: NWS Daily Summary

Daily Weather History Graph

Daily Weather History Graph

Search for Another Location

Airport:

Trip Planner

Search our weather history database for the weather conditions in past years. The results will help you decide how hot, cold, wet, or windy it might be!

Date:

Astronomy

Mar. 12, 2014 Rise Set
Actual Time 7:06 AM CDT 6:54 PM CDT
Civil Twilight 6:39 AM CDT 7:21 PM CDT
Nautical Twilight 6:09 AM CDT 7:52 PM CDT
Astronomical Twilight 5:37 AM CDT 8:23 PM CDT
Moon 3:26 PM CDT (3/12) 4:36 AM CDT (3/12)
Length of Visible Light 12h 41m
Length of Day
11h 48m
Waxing Gibbous, 85% of the Moon is Illuminated
Mar 12
Waxing Gibbous
Mar 16
Full
Mar 23
Last Quarter
Mar 30
New
Apr 7
First Quarter

Hourly Weather History & Observations

Time (CDT) Temp. Windchill Dew Point Humidity Pressure Visibility Wind Dir Wind Speed Gust Speed Precip Events Conditions
12:15 AM 57.4 °F - 53.1 °F 85% 29.46 in 7.0 mi South 5.8 mph - 0.01 in Rain Light Rain
12:35 AM 59.0 °F - 54.7 °F 86% 29.44 in 10.0 mi SSE 8.1 mph - 0.01 in Thunderstorm Overcast
12:55 AM 57.6 °F - 54.7 °F 90% 29.43 in 10.0 mi South 5.8 mph - 0.01 in   Overcast
1:15 AM 58.1 °F - 55.4 °F 91% 29.41 in 10.0 mi SSE 9.2 mph - N/A   Overcast
1:35 AM 59.7 °F - 55.8 °F 87% 29.40 in 10.0 mi South 11.5 mph - N/A   Overcast
1:55 AM 61.0 °F - 55.9 °F 83% 29.39 in 10.0 mi SSW 12.7 mph - N/A   Overcast
2:15 AM 61.9 °F - 56.7 °F 83% 29.39 in 10.0 mi WSW 10.4 mph - N/A Thunderstorm Overcast
2:35 AM 55.2 °F - 51.6 °F 88% 29.40 in 5.0 mi NNW 11.5 mph 17.3 mph N/A   Overcast
2:55 AM 50.9 °F - 49.1 °F 94% 29.38 in 2.5 mi North 11.5 mph - N/A   Overcast
3:15 AM 49.6 °F - 48.2 °F 95% 29.38 in 2.5 mi NNW 8.1 mph - 0.01 in Rain Light Rain
3:35 AM 47.8 °F - 46.6 °F 95% 29.38 in 2.5 mi NNW 6.9 mph - 0.01 in Rain Light Rain
3:55 AM 47.3 °F - 46.4 °F 97% 29.36 in 2.0 mi North 5.8 mph - 0.05 in Rain Light Rain
4:15 AM 46.0 °F 38.8 °F 45.1 °F 97% 29.42 in 2.5 mi NW 18.4 mph 28.8 mph 0.05 in Rain Rain
4:35 AM 43.5 °F 36.4 °F 42.3 °F 95% 29.43 in 4.0 mi NNW 15.0 mph 24.2 mph 0.11 in Rain Rain
4:55 AM 42.8 °F 34.5 °F 41.5 °F 95% 29.43 in 5.0 mi NNW 18.4 mph 23.0 mph 0.16 in Rain Rain
5:15 AM 42.1 °F 32.1 °F 40.3 °F 93% 29.44 in 10.0 mi NNW 25.3 mph 32.2 mph 0.01 in Rain Light Rain
5:35 AM 41.5 °F 31.2 °F 39.4 °F 92% 29.45 in 10.0 mi NNW 26.5 mph 33.4 mph 0.01 in   Overcast
5:55 AM 40.3 °F 29.9 °F 37.8 °F 91% 29.48 in 10.0 mi North 24.2 mph 32.2 mph 0.01 in   Overcast
6:15 AM 39.7 °F 29.2 °F 36.7 °F 89% 29.50 in 10.0 mi North 24.2 mph 33.4 mph N/A   Overcast
6:35 AM 39.6 °F 28.5 °F 36.7 °F 89% 29.52 in 10.0 mi North 26.5 mph 36.8 mph N/A   Overcast
6:55 AM 39.7 °F 30.0 °F 37.2 °F 91% 29.56 in 10.0 mi North 20.7 mph 27.6 mph N/A   Overcast
7:15 AM 39.7 °F 28.5 °F 36.7 °F 89% 29.59 in 10.0 mi North 27.6 mph 38.0 mph N/A   Overcast
7:35 AM 38.3 °F 27.1 °F 36.5 °F 93% 29.63 in 4.0 mi NNW 25.3 mph 33.4 mph N/A Rain Light Rain
7:55 AM 37.8 °F 27.1 °F 36.0 °F 93% 29.66 in 3.0 mi NNW 21.9 mph 31.1 mph N/A Rain Light Rain
8:15 AM 37.0 °F 25.6 °F 35.2 °F 93% 29.67 in 2.0 mi NNW 24.2 mph 33.4 mph 0.01 in Rain Light Rain
8:35 AM 36.5 °F 25.7 °F 34.9 °F 94% 29.69 in 2.5 mi NNW 20.7 mph 33.4 mph 0.01 in Rain Light Rain
8:55 AM 36.1 °F 24.2 °F 34.5 °F 94% 29.71 in 3.0 mi NNW 25.3 mph 33.4 mph 0.01 in Snow Light Snow
9:15 AM 36.1 °F 25.0 °F 34.7 °F 94% 29.72 in 4.0 mi NNW 21.9 mph 31.1 mph N/A   Overcast
9:35 AM 36.7 °F 27.2 °F 34.7 °F 93% 29.74 in 7.0 mi North 16.1 mph 28.8 mph N/A Snow Light Snow
9:55 AM 36.5 °F 25.2 °F 34.5 °F 93% 29.76 in 7.0 mi North 23.0 mph 28.8 mph N/A Snow Light Snow
10:15 AM 36.5 °F 25.2 °F 34.0 °F 91% 29.79 in 10.0 mi NNW 23.0 mph 29.9 mph N/A   Overcast
10:35 AM 36.5 °F 25.4 °F 33.6 °F 89% 29.80 in 10.0 mi NNW 21.9 mph 29.9 mph N/A   Overcast
10:55 AM 36.0 °F 23.9 °F 32.5 °F 87% 29.82 in 10.0 mi North 25.3 mph 29.9 mph N/A   Overcast
11:15 AM 35.8 °F 26.1 °F 32.2 °F 87% 29.84 in 10.0 mi North 16.1 mph - N/A   Overcast
11:35 AM 35.6 °F 25.2 °F 32.0 °F 87% 29.85 in 10.0 mi North 18.4 mph 28.8 mph N/A   Overcast
11:55 AM 36.0 °F 24.2 °F 31.8 °F 85% 29.86 in 10.0 mi NNW 24.2 mph 28.8 mph N/A   Overcast
12:15 PM 36.7 °F 26.3 °F 31.3 °F 81% 29.87 in 10.0 mi NNW 19.6 mph 33.4 mph N/A   Overcast
12:35 PM 37.0 °F 25.9 °F 31.6 °F 81% 29.89 in 10.0 mi NNW 23.0 mph - N/A   Overcast
12:55 PM 36.9 °F 25.4 °F 31.3 °F 80% 29.90 in 10.0 mi NNW 24.2 mph 29.9 mph N/A   Overcast
1:15 PM 37.4 °F 26.9 °F 31.3 °F 79% 29.91 in 10.0 mi NW 20.7 mph 29.9 mph N/A   Overcast
1:35 PM 38.1 °F 28.1 °F 31.3 °F 76% 29.92 in 10.0 mi NNW 19.6 mph 27.6 mph N/A   Overcast
1:55 PM 37.9 °F 27.6 °F 31.5 °F 77% 29.93 in 10.0 mi NNW 20.7 mph 31.1 mph N/A   Overcast
2:15 PM 39.4 °F 30.1 °F 31.8 °F 74% 29.94 in 10.0 mi NNW 18.4 mph 25.3 mph N/A   Mostly Cloudy
2:35 PM 38.8 °F 29.4 °F 30.9 °F 73% 29.94 in 10.0 mi NNW 18.4 mph 27.6 mph N/A   Overcast
2:55 PM 39.0 °F 29.9 °F 30.2 °F 71% 29.94 in 10.0 mi NNW 17.3 mph 23.0 mph N/A   Overcast
3:15 PM 39.2 °F 29.3 °F 30.7 °F 72% 29.95 in 10.0 mi NNW 20.7 mph 26.5 mph N/A   Overcast
3:35 PM 38.8 °F 29.4 °F 31.1 °F 74% 29.96 in 10.0 mi NW 18.4 mph - N/A   Overcast
3:55 PM 38.1 °F 29.5 °F 29.7 °F 72% 29.97 in 10.0 mi NNW 15.0 mph 23.0 mph N/A   Overcast
4:15 PM 37.9 °F 28.5 °F 28.6 °F 69% 29.99 in 10.0 mi NNW 17.3 mph 20.7 mph N/A   Overcast
4:35 PM 37.6 °F 29.1 °F 29.3 °F 72% 30.00 in 5.0 mi NW 13.8 mph 23.0 mph N/A Snow Light Snow
4:55 PM 38.5 °F 29.6 °F 31.1 °F 75% 30.00 in 10.0 mi NNW 16.1 mph 20.7 mph N/A   Mostly Cloudy
5:15 PM 36.9 °F 28.2 °F 30.0 °F 76% 30.01 in 10.0 mi NNW 13.8 mph - N/A   Mostly Cloudy
5:35 PM 36.7 °F 28.9 °F 30.9 °F 80% 30.01 in 10.0 mi NNW 11.5 mph - N/A Snow Light Snow
5:55 PM 36.0 °F 28.5 °F 31.6 °F 84% 30.03 in 1.8 mi NNW 10.4 mph - N/A Snow Light Snow
6:15 PM 33.4 °F 25.9 °F 32.2 °F 95% 30.04 in 0.8 mi NNW 9.2 mph - N/A Snow Light Snow
6:35 PM 33.4 °F 25.9 °F 32.0 °F 94% 30.05 in 7.0 mi NNW 9.2 mph - N/A Snow Light Snow
6:55 PM 33.8 °F 27.7 °F 32.0 °F 93% 30.06 in 3.0 mi NNW 6.9 mph - N/A Snow Light Snow
7:15 PM 33.4 °F 28.1 °F 32.0 °F 94% 30.06 in 2.5 mi NNW 5.8 mph - N/A Snow Light Snow
7:35 PM 32.9 °F 24.7 °F 32.0 °F 96% 30.07 in 1.5 mi NNW 10.4 mph - N/A Snow Light Snow
7:55 PM 32.9 °F 25.3 °F 31.8 °F 96% 30.08 in 10.0 mi NNW 9.2 mph - N/A   Overcast
8:15 PM 33.1 °F 26.1 °F 31.8 °F 95% 30.09 in 5.0 mi NNW 8.1 mph - N/A Snow Light Snow
8:35 PM 32.9 °F 26.7 °F 31.8 °F 96% 30.10 in 10.0 mi NNW 6.9 mph - N/A   Overcast
8:55 PM 32.4 °F 24.6 °F 30.6 °F 93% 30.10 in 10.0 mi North 9.2 mph - N/A   Overcast
9:15 PM 32.0 °F 25.6 °F 30.2 °F 93% 30.11 in 10.0 mi NNW 6.9 mph - N/A   Mostly Cloudy
9:35 PM 32.0 °F 25.6 °F 29.7 °F 91% 30.11 in 10.0 mi North 6.9 mph - N/A   Scattered Clouds
9:55 PM 32.0 °F 23.0 °F 27.9 °F 85% 30.12 in 10.0 mi North 11.5 mph - N/A   Mostly Cloudy
10:15 PM 31.6 °F 23.7 °F 27.3 °F 84% 30.13 in 10.0 mi North 9.2 mph - N/A   Mostly Cloudy
10:35 PM 30.7 °F 24.1 °F 26.6 °F 85% 30.13 in 10.0 mi NNW 6.9 mph - N/A   Scattered Clouds
10:55 PM 30.7 °F 26.0 °F 27.0 °F 86% 30.13 in 10.0 mi NNW 4.6 mph - N/A   Mostly Cloudy
11:15 PM 30.7 °F 24.9 °F 27.3 °F 87% 30.13 in 10.0 mi NW 5.8 mph - N/A   Overcast
11:35 PM 30.6 °F 23.8 °F 26.6 °F 85% 30.13 in 10.0 mi NW 6.9 mph - N/A   Mostly Cloudy
11:55 PM 30.4 °F 23.6 °F 26.2 °F 85% 30.13 in 10.0 mi NNW 6.9 mph - N/A   Mostly Cloudy